Tucson Davis Monthan, AZ

8:31 PM MST on June 24, 2018 (GMT -0700)
Davis-Monthan Air Force Base

Weather History for KDMA - December, 2017

Change the Weather History Date:

Thursday, December 28, 2017

  Actual Average Record
Temperature  
Mean Temperature 60 °F -  
Max Temperature 78 °F 62 °F 78 °F (1980)
Min Temperature 41 °F 38 °F 18 °F (1954)
Degree Days  
Heating Degree Days 6    
Growing Degree Days 10 (Base 50)    
Moisture  
Dew Point 21 °F    
Average Humidity 27    
Maximum Humidity 40    
Minimum Humidity 11    
Precipitation  
Precipitation 0.00 in - - ()
Sea Level Pressure  
Sea Level Pressure 30.11 in    
Wind  
Wind Speed 6 mph (SE)    
Max Wind Speed 13 mph    
Max Gust Speed -    
Visibility 10 miles    
Events      
Averages and records for this station are not official NWS values.
T = Trace of Precipitation, MM = Missing Value Source: NWS Daily Summary

Daily Weather History Graph

Daily Weather History Graph

Search for Another Location

Airport or City:

Astronomy

Dec. 28, 2017 Rise Set
Actual Time 7:23 AM MST 5:27 PM MST
Civil Twilight 6:56 AM MST 5:54 PM MST
Nautical Twilight 6:25 AM MST 6:24 PM MST
Astronomical Twilight 5:55 AM MST 6:54 PM MST
Moon 2:01 PM MST (12/28) 2:18 AM MST (12/28)
Length of Visible Light 10h 57m
Length of Day
10h 03m
Waxing Gibbous, 75% of the Moon is Illuminated
Dec 28
Waxing Gibbous
Jan 1
Full
Jan 8
Last Quarter
Jan 16
New
Jan 24
First Quarter

Hourly Weather History & Observations

Time (MST) Temp. Windchill Dew Point Humidity Pressure Visibility Wind Dir Wind Speed Gust Speed Precip Events Conditions
12:58 AM 44.4 °F 41.2 °F 17.8 °F 34% 30.13 in 10.0 mi SE 5.8 mph - N/A   Clear
1:58 AM 46.2 °F 44.1 °F 17.2 °F 31% 30.11 in 10.0 mi SSE 4.6 mph - N/A   Clear
2:58 AM 44.2 °F 38.0 °F 16.9 °F 33% 30.10 in 10.0 mi SSE 12.7 mph - N/A   Clear
3:58 AM 43.5 °F 37.9 °F 17.6 °F 35% 30.11 in 10.0 mi SE 10.4 mph - N/A   Clear
4:58 AM 41.5 °F 36.4 °F 18.5 °F 40% 30.11 in 10.0 mi ESE 8.1 mph - N/A   Clear
5:58 AM 46.2 °F 41.7 °F 18.7 °F 33% 30.13 in 10.0 mi SE 9.2 mph - N/A   Clear
6:58 AM 46.0 °F 41.0 °F 19.2 °F 34% 30.15 in 10.0 mi SE 10.4 mph - N/A   Clear
7:58 AM 46.0 °F 43.1 °F 19.9 °F 35% 30.17 in 10.0 mi SSE 5.8 mph - N/A   Clear
8:58 AM 50.2 °F - 22.1 °F 33% 30.18 in 10.0 mi ESE 4.6 mph - N/A   Clear
9:58 AM 55.8 °F - 24.8 °F 30% 30.18 in 10.0 mi SE 3.5 mph - N/A   Clear
10:58 AM 68.4 °F - 23.2 °F 18% 30.16 in 10.0 mi WNW 3.5 mph - N/A   Clear
11:58 AM 71.4 °F - 25.7 °F 18% 30.12 in 10.0 mi NW 4.6 mph - N/A   Clear
12:58 PM 74.1 °F - 25.0 °F 16% 30.08 in 10.0 mi NNW 3.5 mph - N/A   Clear
1:58 PM 78.4 °F - 21.6 °F 12% 30.04 in 10.0 mi Calm Calm - N/A   Clear
2:58 PM 78.8 °F - 19.8 °F 11% 30.03 in 10.0 mi NW 5.8 mph - N/A   Clear
3:58 PM 77.0 °F - 18.5 °F 11% 30.04 in 10.0 mi NW 10.4 mph - N/A   Clear
4:58 PM 72.9 °F - 22.5 °F 15% 30.05 in 10.0 mi NW 10.4 mph - N/A   Clear
5:58 PM 65.3 °F - 23.2 °F 20% 30.07 in 10.0 mi NW 9.2 mph - N/A   Clear
6:58 PM 59.4 °F - 22.5 °F 24% 30.10 in 10.0 mi Calm Calm - N/A   Clear
7:58 PM 54.5 °F - 22.8 °F 29% 30.11 in 10.0 mi SSW 3.5 mph - N/A   Clear
8:58 PM 51.4 °F - 23.4 °F 33% 30.12 in 10.0 mi SSE 8.1 mph - N/A   Clear
9:58 PM 50.0 °F - 22.6 °F 34% 30.12 in 10.0 mi ESE 5.8 mph - N/A   Clear
10:58 PM 48.6 °F - 20.7 °F 33% 30.10 in 10.0 mi NE 3.5 mph - N/A   Clear
11:58 PM 48.9 °F - 18.9 °F 30% 30.11 in 10.0 mi South 3.5 mph - N/A   Clear